Notices

What's New in latest Release from April 7th, 2021:

- Updated Glossary, including Speed of Maximum Gust, and Total Hourly Precipitation

- Updated national and regional climate services offices contacts and prices information

- Addition of station inventory lists for 1981-2010, 1971-2000, and 1961-1990 Normals.

If you haven't already, please take our survey and provide feedback about our website: https://eccc.sondage-survey.ca/f/LanguageSelection.aspx?s=442ca660-fcf1-47c0-95a9-59707d6fd709

Hourly Data Report for November 23, 2019

PINAWA
MANITOBA
Current Station Operator: ECCC - MSC

50°10'38.020" N
96°03'53.000" W
268.00 m
503B1ER
71448
WEA

Download Data

Hourly Data (November 2019)
Hourly Data Report for November 23, 2019
TIME
LST
Temp Definition
°C
Dew Point Definition
°C
Rel Hum Definition
%
Precip. Amount Definition
mm

Wind Dir Definition
10's deg

Wind Spd Definition
km/h
Visibility Definition
km
Stn Press Definition
kPa
Hmdx Definition


Wind Chill Definition


Weather Definition


00:00 -1.8 LegendMM LegendMM 0.0 24 5   96.78   -4 LegendNANA
01:00 -1.7 LegendMM LegendMM 0.0 25 6   96.82   -4 LegendNANA
02:00 -2.9 LegendMM LegendMM 0.0 25 6   96.85   -5 LegendNANA
03:00 -3.4 LegendMM LegendMM 0.0 24 7   96.86   -6 LegendNANA
04:00 -3.9 LegendMM LegendMM 0.0 26 4   96.88   -6 LegendNANA
05:00 -3.9 LegendMM LegendMM 0.0 27 8   96.93   -7 LegendNANA
06:00 -3.5 LegendMM LegendMM 0.0 27 10   96.97   -7 LegendNANA
07:00 -4.0 LegendMM LegendMM 0.0 26 5   96.99   -6 LegendNANA
08:00 -3.7 LegendMM LegendMM 0.0 25 3   97.00   -5 LegendNANA
09:00 -3.4 LegendMM LegendMM 0.0 24 4   96.99   -5 LegendNANA
10:00 -1.0 LegendMM LegendMM 0.0 23 5   96.96   -3 LegendNANA
11:00 1.2 LegendMM LegendMM 0.0 24 5   96.97     LegendNANA
12:00 1.8 LegendMM LegendMM 0.0 22 3   96.89     LegendNANA
13:00 2.9 LegendMM LegendMM 0.0 22 5   96.80     LegendNANA
14:00 3.0 LegendMM LegendMM 0.0 19 6   96.69     LegendNANA
15:00 1.8 LegendMM LegendMM 0.0 21 11   96.61     LegendNANA
16:00 1.9 LegendMM LegendMM 0.0 19 6   96.54     LegendNANA
17:00 2.0 LegendMM LegendMM 0.0 20 7   96.47     LegendNANA
18:00 2.8 LegendMM LegendMM 0.0 22 9   96.41     LegendNANA
19:00 2.4 LegendMM LegendMM 0.0 25 11   96.39     LegendNANA
20:00 2.7 LegendMM LegendMM 0.0 26 15   96.34     LegendNANA
21:00 3.1 LegendMM LegendMM 0.0 27 13   96.36     LegendNANA
22:00 2.4 LegendMM LegendMM 0.0 27 13   96.38     LegendNANA
23:00 2.0 LegendMM LegendMM 0.0 27 12   96.37     LegendNANA

Notes on Data Quality.

Legend

  • E = Estimated
  • M = Missing
  • NA = Not Available*
  • [empty] = Indicates an unobserved value
Date modified: